FW3072 Weather Reports


time (UTC)temp
C
wind
direction
speed
KPH
gust
KPH
rain 1hr
cm
rain 24hr
cm
rain mn
cm
humidity
%
barometer
mb
20260904131204 18 359 0.0 3.2 0.00 1.14 0.00 96 1014.8
20260904130224 18 359 0.0 3.2 0.00 1.14 0.00 96 1014.8
20260904125204 18 359 1.6 3.2 0.00 1.14 0.00 95 1014.7
20260904124204 18 360 0.0 1.6 0.00 1.14 0.00 96 1014.7
20260904123204 18 359 1.6 3.2 0.00 1.14 0.00 96 1014.8
20260904122226 18 359 0.0 1.6 0.00 1.14 0.00 96 1014.7
20260904121203 18 360 0.0 0.0 0.00 1.14 0.00 96 1014.5
20260904120203 18 360 0.0 0.0 0.00 1.14 0.00 96 1014.5
20260904115204 18 360 0.0 0.0 0.00 1.14 0.00 95 1014.5
20260904114203 18 360 0.0 0.0 0.00 1.14 0.00 95 1014.4
20260904113206 17 360 0.0 0.0 0.00 1.14 0.00 95 1014.3
20260904112204 17 360 0.0 0.0 0.00 1.14 0.00 95 1014.0
20260904111203 17 360 0.0 0.0 0.00 1.14 0.00 95 1014.0
20260904110205 17 360 0.0 0.0 0.00 1.14 0.00 95 1013.9
20260904105204 17 360 0.0 0.0 0.00 1.14 0.00 95 1014.0
20260904104203 18 360 0.0 0.0 0.00 1.14 0.00 95 1013.9
20260904103207 18 360 0.0 0.0 0.00 1.14 0.00 95 1013.9
20260904102204 18 360 0.0 0.0 0.00 1.14 0.00 95 1013.8
20260904101203 18 360 0.0 0.0 0.00 1.14 0.00 95 1014.0
20260904100205 18 360 0.0 0.0 0.00 1.14 0.00 95 1013.8
20260904095206 18 360 0.0 0.0 0.00 1.14 0.00 95 1013.6
20260904094206 18 360 0.0 0.0 0.00 1.14 0.00 95 1013.6
20260904093203 18 360 0.0 0.0 0.00 1.14 0.00 95 1013.5
20260904092204 18 360 0.0 0.0 0.00 1.14 0.00 95 1013.6
20260904091203 18 360 0.0 0.0 0.00 1.14 0.00 95 1013.6
20260904090204 18 360 0.0 0.0 0.00 1.14 0.00 95 1013.5
20260904085203 18 360 0.0 0.0 0.00 1.14 0.00 95 1013.4
20260904084226 18 360 0.0 0.0 0.00 1.14 0.00 95 1013.5
20260904083224 18 360 0.0 0.0 0.00 1.14 0.00 95 1013.5
20260904082204 18 360 0.0 3.2 0.00 1.14 0.00 95 1013.5
20260904081247 18 359 0.0 3.2 0.00 1.14 0.00 95 1013.4
20260904080203 18 360 0.0 0.0 0.00 1.14 0.00 95 1013.3
20260904075204 18 360 0.0 0.0 0.00 1.14 0.00 95 1013.2
20260904074203 18 360 0.0 0.0 0.00 1.14 0.00 95 1013.1
20260904073204 18 360 0.0 0.0 0.00 1.14 0.00 95 1012.9
20260904072203 18 360 0.0 0.0 0.00 1.14 0.00 95 1013.0
20260904071204 18 360 0.0 0.0 0.00 1.14 0.00 95 1012.9
20260904070203 18 360 0.0 0.0 0.00 1.14 0.00 95 1013.0
20260904065204 18 360 0.0 0.0 0.00 1.14 0.00 95 1012.9
20260904064204 18 360 0.0 0.0 0.00 1.14 0.00 95 1013.0
20260904063204 19 360 0.0 0.0 0.00 1.14 0.00 95 1012.9
20260904062205 19 360 0.0 0.0 0.00 1.14 0.00 95 1012.9
20260904061204 19 360 0.0 0.0 0.00 1.14 0.00 95 1012.8
20260904060206 20 360 0.0 0.0 0.00 1.14 0.00 95 1012.8
20260904055204 20 360 0.0 0.0 0.00 1.14 0.00 95 1012.8
20260904054203 20 360 0.0 0.0 0.00 1.14 0.00 95 1013.1
20260904053204 20 360 0.0 0.0 0.00 1.14 0.00 95 1013.1
20260904052226 20 360 0.0 0.0 0.00 1.14 0.00 95 1013.1
20260904051205 20 360 0.0 0.0 0.00 1.14 0.00 95 1013.3
20260904050205 21 360 0.0 0.0 0.00 1.14 0.00 95 1013.4
20260904045205 21 360 0.0 0.0 0.00 1.14 0.00 95 1013.3
20260904044225 21 360 0.0 0.0 0.00 1.14 0.00 95 1013.2
20260904043203 21 360 0.0 0.0 0.00 1.14 0.00 95 1013.3
20260904042225 21 360 0.0 0.0 0.00 1.14 0.00 95 1013.3
20260904041225 20 360 0.0 0.0 0.00 1.14 0.00 95 1013.4
20260904040204 20 360 0.0 0.0 0.00 1.14 0.00 95 1013.3
20260904035203 20 360 0.0 0.0 0.00 1.14 1.14 95 1013.2
20260904034204 20 360 0.0 0.0 0.00 1.14 1.14 95 1013.1
20260904033203 20 360 0.0 0.0 0.00 1.14 1.14 94 1013.1
20260904032205 21 360 0.0 0.0 0.00 1.14 1.14 95 1013.0
20260904031203 21 360 0.0 0.0 0.00 1.14 1.14 95 1012.8
20260904025204 21 360 0.0 0.0 0.00 1.14 1.14 94 1012.8
20260904024204 21 360 0.0 0.0 0.00 1.14 1.14 94 1012.6
20260904023204 21 360 0.0 0.0 0.00 1.14 1.14 94 1012.6
20260904022203 21 359 0.0 1.6 0.00 1.14 1.14 94 1012.6
20260904021226 21 360 0.0 0.0 0.00 1.14 1.14 94 1012.8
20260904020227 21 360 0.0 0.0 0.00 1.14 1.14 94 1012.9
20260904015205 21 359 0.0 3.2 0.00 1.14 1.14 94 1012.8
20260904014205 21 360 0.0 3.2 0.00 1.14 1.14 94 1012.7
20260904013204 22 359 4.8 8.0 0.00 1.14 1.14 94 1012.6
20260904012228 22 359 3.2 6.4 0.00 1.35 1.14 94 1012.5
20260904011204 22 359 0.0 6.4 0.00 1.37 1.14 94 1012.2
20260904010204 22 359 1.6 3.2 0.00 1.37 1.14 94 1011.9
20260904005203 22 359 1.6 4.8 0.08 1.40 1.14 94 1011.7
20260904004204 22 360 0.0 0.0 0.08 1.40 1.14 93 1011.8
20260904003224 22 360 0.0 3.2 0.08 1.40 1.14 93 1011.7
20260904002204 22 359 0.0 3.2 0.08 1.40 1.14 93 1011.3
20260904001205 22 359 0.0 3.2 0.03 1.40 1.09 92 1011.6
20260904000226 23 360 0.0 8.0 0.00 1.40 1.07 92 1011.7
20260903235204 23 359 0.0 19.3 1.02 1.40 1.02 92 1011.8
20260903234204 23 359 0.0 3.2 0.28 0.74 0.28 91 1011.5
20260903233225 23 274 0.0 4.8 0.00 0.53 0.00 91 1011.5
20260903232204 24 359 0.0 4.8 0.00 0.56 0.00 90 1011.7
20260903231204 24 359 0.0 9.7 0.00 1.12 0.00 90 1011.6
20260903230203 25 359 8.0 12.9 0.00 0.84 0.00 89 1012.0
20260903225204 25 360 0.0 0.0 0.00 1.12 0.00 88 1011.5
20260903224204 25 360 0.0 0.0 0.00 1.12 0.00 88 1011.7
20260903223204 25 360 0.0 0.0 0.00 1.12 0.00 87 1011.6
20260903222203 25 360 0.0 0.0 0.00 1.12 0.00 87 1011.6
20260903221226 25 360 0.0 0.0 0.00 1.12 0.00 87 1011.6
20260903220205 25 360 0.0 0.0 0.00 1.12 0.00 86 1011.2
20260903215226 25 360 0.0 0.0 0.00 1.12 0.00 86 1011.3
20260903214203 25 360 0.0 0.0 0.00 1.12 0.00 86 1011.0
20260903213204 25 360 0.0 0.0 0.00 1.12 0.00 86 1010.8
20260903212205 25 360 0.0 0.0 0.00 1.12 0.00 86 1011.0
20260903211225 25 360 0.0 0.0 0.00 1.12 0.00 85 1011.1
20260903210204 26 360 0.0 1.6 0.00 1.12 0.00 85 1011.4
20260903205204 26 359 0.0 9.7 0.00 1.12 0.00 85 1011.3
20260903204204 26 359 1.6 8.0 0.00 1.12 0.00 85 1011.3
20260903203204 26 359 1.6 8.0 0.00 1.12 0.00 84 1011.5
20260903202225 26 359 1.6 9.7 0.00 1.12 0.00 84 1011.8
20260903201203 26 359 1.6 6.4 0.00 1.12 0.00 83 1011.8
20260903200204 26 359 0.0 9.7 0.00 1.12 0.00 82 1011.8
20260903195203 27 357 3.2 8.0 0.00 1.12 0.00 81 1011.9
20260903194204 27 359 1.6 8.0 0.00 1.12 0.00 81 1011.8
20260903193203 27 359 0.0 12.9 0.00 1.12 0.00 80 1011.7
20260903192204 27 359 3.2 12.9 0.00 1.12 0.00 80 1011.8
20260903191204 27 359 6.4 14.5 0.00 1.12 0.00 80 1012.0
20260903190204 27 359 4.8 14.5 0.00 1.12 0.00 81 1012.1
20260903185226 27 359 4.8 17.7 0.00 1.12 0.00 80 1012.1
20260903184204 27 359 9.7 20.9 0.00 1.12 0.00 80 1012.0
20260903183203 27 359 3.2 14.5 0.00 1.12 0.00 82 1012.2
20260903182226 27 359 3.2 17.7 0.00 1.12 0.00 83 1012.2
20260903181204 26 358 1.6 8.0 0.00 1.12 0.00 84 1012.2
20260903180204 26 359 3.2 16.1 0.00 1.12 0.00 85 1012.3
20260903175205 26 359 1.6 16.1 0.00 1.12 0.00 86 1012.5
20260903174204 26 359 0.0 6.4 0.00 1.12 0.00 87 1012.5
20260903173205 25 352 3.2 6.4 0.00 1.12 0.00 87 1012.6
20260903172226 25 354 1.6 14.5 0.00 1.12 0.00 87 1012.6
20260903171203 25 360 0.0 8.0 0.00 1.12 0.00 87 1012.6
20260903170204 25 359 3.2 14.5 0.00 1.12 0.00 87 1012.7
20260903165224 26 358 6.4 17.7 0.00 1.12 0.00 88 1012.7
20260903164225 25 359 1.6 9.7 0.00 1.12 0.00 88 1012.6
20260903163203 25 359 0.0 9.7 0.00 1.12 0.00 88 1012.6
20260903162204 25 359 1.6 8.0 0.00 1.12 0.00 87 1012.8
20260903161203 25 3 1.6 9.7 0.00 1.12 0.00 88 1012.8
20260903160204 25 359 1.6 8.0 0.00 1.12 0.00 89 1012.9
20260903155203 25 358 1.6 9.7 0.00 1.12 0.00 89 1013.0
20260903154205 25 359 1.6 6.4 0.00 1.12 0.00 89 1013.2
20260903153224 25 359 0.0 9.7 0.00 1.12 0.00 90 1013.2
20260903152204 24 359 3.2 12.9 0.00 1.12 0.00 91 1013.3
20260903151203 24 359 6.4 17.7 0.00 1.12 0.00 93 1013.3
20260903150205 23 359 1.6 12.9 0.00 1.12 0.00 93 1013.2
20260903145203 23 356 1.6 8.0 0.00 1.12 0.00 93 1013.3
20260903144203 23 359 3.2 8.0 0.00 1.12 0.00 94 1013.3
20260903143225 23 359 4.8 16.1 0.00 1.12 0.00 95 1013.3
20260903142208 23 350 1.6 9.7 0.00 1.12 0.00 95 1013.3
20260903141203 22 359 3.2 14.5 0.00 1.12 0.00 95 1013.2
20260903140203 22 359 0.0 14.5 0.00 1.12 0.00 95 1013.3
20260903135204 22 359 3.2 9.7 0.00 1.12 0.00 96 1013.3
20260903134207 22 359 6.4 14.5 0.00 1.12 0.00 96 1013.3
20260903133204 22 358 3.2 8.0 0.00 1.12 0.00 96 1013.3
20260903132203 22 359 0.0 14.5 0.00 1.12 0.00 96 1013.3